Location: Bothwell
(42.3833°S, 147.0000°E)
Time: 22:00:52
(UTC+10:00)

DUCHIFAT 1 - Visible Passes

Search period start: 20 July 2025 00:00
Search period end: 30 July 2025 00:00
Orbit: 469 x 482 km, 98.1° (Epoch: 19 July)

Date Brightness Start Highest point End Pass type
(mag) Time Alt. Az. Time Alt. Az. Time Alt. Az.
20 Jul ? 05:20:34 10° ENE 05:22:41 15° ESE 05:24:49 10° SSE visible
20 Jul ? 06:52:17 10° NNW 06:55:34 35° W 06:58:55 10° SSW visible
21 Jul ? 06:24:58 10° NNE 06:28:32 84° W 06:32:10 10° SSW visible
21 Jul ? 19:30:06 12° NNW 19:30:06 12° NNW 19:30:23 10° NNW visible
22 Jul ? 05:58:12 10° NE 06:01:34 41° ESE 06:05:00 10° S visible
22 Jul ? 19:02:47 12° NNE 19:02:47 12° NNE 19:03:07 10° N visible
23 Jul ? 05:32:02 10° ENE 05:34:41 20° ESE 05:37:22 10° SSE visible
24 Jul ? 06:37:02 10° N 06:40:32 59° W 06:44:07 10° SSW visible
24 Jul ? 19:42:11 11° NNW 19:42:11 11° NNW 19:42:16 10° NNW visible
25 Jul ? 06:09:56 10° NNE 06:13:26 57° ESE 06:17:00 10° S visible
25 Jul ? 19:14:44 13° N 19:14:44 13° N 19:15:07 10° N visible
26 Jul ? 05:43:24 10° NE 05:46:25 26° ESE 05:49:28 10° SSE visible
26 Jul ? 18:47:16 10° NNE 18:47:16 10° NNE 18:47:19 10° NNE visible
27 Jul ? 05:17:45 10° E 05:19:28 13° ESE 05:21:12 10° SE visible
27 Jul ? 06:48:51 10° N 06:52:15 42° W 06:55:43 10° SSW visible
28 Jul ? 06:21:27 10° NNE 06:25:01 80° ESE 06:28:39 10° S visible
28 Jul ? 19:26:24 12° N 19:26:24 12° N 19:26:45 10° N visible
29 Jul ? 05:54:36 10° NE 05:57:51 34° ESE 06:01:10 10° S visible
29 Jul ? 18:58:50 12° NNE 18:58:50 12° NNE 18:59:05 10° NNE visible
